Location: Mountain View
(37.3861°N, 122.0839°W)
Time: 06:18:50
(UTC-08:00)

OTV 5 (USA 277) - Visible Passes

Search period start: 19 December 2018 00:00
Search period end: 29 December 2018 00:00
Orbit: 340 x 348 km, 54.5° (Epoch: 17 December)

Date Brightness Start Highest point End Pass type
(mag) Time Alt. Az. Time Alt. Az. Time Alt. Az.
23 Dec ? 18:20:50 10° S 18:22:47 23° SSE 18:22:47 23° SSE visible
24 Dec ? 18:43:55 10° SW 18:46:06 46° WSW 18:46:06 46° WSW visible
25 Dec ? 17:33:18 10° S 17:35:42 23° SE 17:37:53 11° ENE visible
25 Dec ? 19:08:14 10° W 19:09:20 16° WNW 19:09:20 16° WNW visible
26 Dec ? 17:56:20 10° SW 17:59:13 78° NW 18:01:02 20° NE visible
27 Dec ? 18:20:37 10° W 18:22:59 22° NW 18:24:07 18° N visible
